TimeCDT,TemperatureF,Dew PointF,Humidity,Sea Level PressureIn,VisibilityMPH,Wind Direction,Wind SpeedMPH,Gust SpeedMPH,PrecipitationIn,Events,Conditions,WindDirDegrees,DateUTC
12:15 AM,31.6,28.0,87,30.32,10.0,Calm,Calm,-,N/A,,Overcast,0,2013-03-29 05:15:00
12:35 AM,32.4,29.1,88,30.32,10.0,Calm,Calm,-,N/A,,Overcast,0,2013-03-29 05:35:00
12:55 AM,32.7,29.5,88,30.32,10.0,Calm,Calm,-,N/A,,Overcast,0,2013-03-29 05:55:00
1:15 AM,33.1,30.7,91,30.31,10.0,Calm,Calm,-,N/A,,Overcast,0,2013-03-29 06:15:00
1:35 AM,33.4,30.9,90,30.31,10.0,Calm,Calm,-,N/A,,Overcast,0,2013-03-29 06:35:00
1:55 AM,33.4,31.1,91,30.32,10.0,Calm,Calm,-,N/A,,Overcast,0,2013-03-29 06:55:00
2:15 AM,34.0,30.2,86,30.31,10.0,Calm,Calm,-,N/A,,Overcast,0,2013-03-29 07:15:00
2:35 AM,34.2,31.1,89,30.31,10.0,Calm,Calm,-,N/A,,Overcast,0,2013-03-29 07:35:00
2:55 AM,33.6,32.0,94,30.31,10.0,Calm,Calm,-,N/A,,Overcast,0,2013-03-29 07:55:00
3:15 AM,34.2,32.0,92,30.30,10.0,Calm,Calm,-,N/A,,Overcast,0,2013-03-29 08:15:00
3:35 AM,34.7,31.6,89,30.30,10.0,Calm,Calm,-,N/A,,Overcast,0,2013-03-29 08:35:00
3:55 AM,33.8,32.0,93,30.30,7.0,SSW,4.6,-,N/A,,Overcast,210,2013-03-29 08:55:00
4:15 AM,33.6,31.8,93,30.29,7.0,Calm,Calm,-,N/A,,Overcast,0,2013-03-29 09:15:00
4:35 AM,33.4,31.5,92,30.29,10.0,Calm,Calm,-,N/A,,Overcast,0,2013-03-29 09:35:00
4:55 AM,33.8,31.1,90,30.29,10.0,Calm,Calm,-,N/A,,Overcast,0,2013-03-29 09:55:00
5:15 AM,32.2,30.7,94,30.29,10.0,Calm,Calm,-,N/A,,Overcast,0,2013-03-29 10:15:00
5:35 AM,32.0,30.6,94,30.29,10.0,Calm,Calm,-,N/A,,Overcast,0,2013-03-29 10:35:00
5:55 AM,32.0,30.6,94,30.29,7.0,NNE,3.5,-,N/A,,Mostly Cloudy,30,2013-03-29 10:55:00
6:15 AM,32.7,30.9,93,30.30,7.0,NNE,3.5,-,N/A,,Overcast,30,2013-03-29 11:15:00
6:35 AM,32.0,30.0,92,30.30,7.0,NNE,3.5,-,N/A,,Overcast,30,2013-03-29 11:35:00
6:55 AM,32.0,29.8,92,30.30,7.0,NE,3.5,-,N/A,,Mostly Cloudy,40,2013-03-29 11:55:00
7:15 AM,32.0,29.8,92,30.31,5.0,Calm,Calm,-,N/A,,Scattered Clouds,0,2013-03-29 12:15:00
7:35 AM,32.7,30.9,93,30.32,5.0,Calm,Calm,-,N/A,,Scattered Clouds,0,2013-03-29 12:35:00
7:55 AM,33.4,30.9,90,30.32,5.0,Calm,Calm,-,N/A,,Clear,0,2013-03-29 12:55:00
8:15 AM,35.6,32.0,87,30.32,5.0,Calm,Calm,-,N/A,,Clear,0,2013-03-29 13:15:00
8:35 AM,37.8,32.4,81,30.32,7.0,ENE,3.5,-,N/A,,Scattered Clouds,70,2013-03-29 13:35:00
8:55 AM,40.5,31.1,69,30.32,10.0,East,3.5,-,N/A,,Mostly Cloudy,90,2013-03-29 13:55:00
9:15 AM,42.1,30.2,63,30.33,10.0,Calm,Calm,-,N/A,,Scattered Clouds,0,2013-03-29 14:15:00
9:35 AM,44.1,28.9,55,30.33,10.0,SE,4.6,-,N/A,,Scattered Clouds,130,2013-03-29 14:35:00
9:55 AM,45.3,29.7,54,30.32,10.0,ESE,4.6,-,N/A,,Scattered Clouds,120,2013-03-29 14:55:00
10:15 AM,46.4,30.6,54,30.32,10.0,South,3.5,-,N/A,,Scattered Clouds,170,2013-03-29 15:15:00
10:35 AM,46.9,29.3,50,30.32,10.0,Calm,Calm,-,N/A,,Scattered Clouds,0,2013-03-29 15:35:00
10:55 AM,47.3,28.8,49,30.32,10.0,East,3.5,-,N/A,,Scattered Clouds,80,2013-03-29 15:55:00
11:15 AM,48.2,27.7,45,30.32,10.0,Calm,Calm,-,N/A,,Scattered Clouds,0,2013-03-29 16:15:00
11:35 AM,50.0,28.4,43,30.32,10.0,NNW,3.5,-,N/A,,Scattered Clouds,340,2013-03-29 16:35:00
11:55 AM,50.5,27.9,42,30.31,10.0,South,6.9,-,N/A,,Clear,180,2013-03-29 16:55:00
12:15 PM,51.1,28.9,43,30.31,10.0,Calm,Calm,-,N/A,,Scattered Clouds,0,2013-03-29 17:15:00
12:35 PM,50.9,28.4,42,30.30,10.0,SSE,4.6,-,N/A,,Scattered Clouds,150,2013-03-29 17:35:00
12:55 PM,51.4,28.6,41,30.29,10.0,Calm,Calm,-,N/A,,Mostly Cloudy,0,2013-03-29 17:55:00
1:15 PM,52.3,30.0,42,30.29,10.0,West,6.9,-,N/A,,Overcast,270,2013-03-29 18:15:00
1:35 PM,51.3,28.8,42,30.28,10.0,Calm,Calm,-,N/A,,Overcast,0,2013-03-29 18:35:00
1:55 PM,51.3,29.3,43,30.28,10.0,Calm,Calm,-,N/A,,Mostly Cloudy,0,2013-03-29 18:55:00
2:15 PM,51.4,29.1,42,30.27,10.0,Calm,Calm,-,N/A,,Overcast,0,2013-03-29 19:15:00
2:35 PM,50.9,28.4,42,30.26,10.0,Calm,Calm,-,N/A,,Overcast,0,2013-03-29 19:35:00
2:55 PM,51.6,29.8,43,30.26,10.0,WSW,4.6,-,N/A,,Overcast,250,2013-03-29 19:55:00
3:15 PM,51.8,28.4,41,30.25,10.0,West,4.6,-,N/A,,Overcast,270,2013-03-29 20:15:00
3:35 PM,51.6,28.6,41,30.24,10.0,Calm,Calm,-,N/A,,Overcast,0,2013-03-29 20:35:00
3:55 PM,53.2,28.0,38,30.24,10.0,Calm,Calm,-,N/A,,Mostly Cloudy,0,2013-03-29 20:55:00
4:15 PM,52.0,28.6,41,30.23,10.0,NW,5.8,-,N/A,,Mostly Cloudy,310,2013-03-29 21:15:00
4:35 PM,52.3,27.1,38,30.23,10.0,Calm,Calm,-,N/A,,Mostly Cloudy,0,2013-03-29 21:35:00
4:55 PM,53.8,28.2,37,30.22,10.0,West,8.1,-,N/A,,Clear,270,2013-03-29 21:55:00
5:15 PM,54.0,27.5,36,30.22,10.0,WNW,5.8,-,N/A,,Scattered Clouds,300,2013-03-29 22:15:00
5:35 PM,53.1,27.1,37,30.22,10.0,West,8.1,-,N/A,,Scattered Clouds,270,2013-03-29 22:35:00
5:55 PM,52.7,28.2,39,30.22,10.0,West,6.9,-,N/A,,Clear,260,2013-03-29 22:55:00
6:15 PM,52.0,28.4,40,30.22,10.0,West,8.1,-,N/A,,Clear,280,2013-03-29 23:15:00
6:35 PM,51.6,27.5,39,30.22,10.0,Calm,Calm,-,N/A,,Clear,0,2013-03-29 23:35:00
6:55 PM,49.6,28.0,43,30.22,10.0,Calm,Calm,-,N/A,,Clear,0,2013-03-29 23:55:00
7:15 PM,48.0,28.8,47,30.22,10.0,Calm,Calm,-,N/A,,Clear,0,2013-03-30 00:15:00
7:35 PM,46.9,28.9,50,30.22,10.0,Calm,Calm,-,N/A,,Clear,0,2013-03-30 00:35:00
7:55 PM,44.2,29.5,56,30.22,10.0,Calm,Calm,-,N/A,,Clear,0,2013-03-30 00:55:00
8:15 PM,42.6,29.7,60,30.23,10.0,Calm,Calm,-,N/A,,Clear,0,2013-03-30 01:15:00
8:35 PM,41.4,26.4,55,30.24,10.0,NE,6.9,-,N/A,,Clear,40,2013-03-30 01:35:00
8:55 PM,40.1,24.6,54,30.24,10.0,NE,6.9,-,N/A,,Clear,40,2013-03-30 01:55:00
9:15 PM,38.5,24.4,57,30.25,10.0,NE,6.9,-,N/A,,Clear,40,2013-03-30 02:15:00
9:35 PM,37.6,23.5,57,30.26,10.0,NE,6.9,-,N/A,,Clear,40,2013-03-30 02:35:00
9:55 PM,36.5,23.4,59,30.26,10.0,NE,4.6,-,N/A,,Clear,40,2013-03-30 02:55:00
10:15 PM,36.0,23.0,59,30.26,10.0,NE,4.6,-,N/A,,Clear,40,2013-03-30 03:15:00
10:35 PM,35.1,23.0,61,30.26,10.0,NE,3.5,-,N/A,,Clear,50,2013-03-30 03:35:00
10:55 PM,35.1,23.0,61,30.25,10.0,NE,3.5,-,N/A,,Clear,40,2013-03-30 03:55:00
11:15 PM,35.1,22.5,60,30.25,10.0,Calm,Calm,-,N/A,,Clear,0,2013-03-30 04:15:00
11:35 PM,34.3,22.1,61,30.25,10.0,Calm,Calm,-,N/A,,Clear,0,2013-03-30 04:35:00
11:55 PM,36.0,23.5,61,30.24,10.0,Calm,Calm,-,N/A,,Clear,0,2013-03-30 04:55:00